Regional Weather Roundup
Issued by NWS Jackson, KY

Home | Current Version | Previous Version | Text Only | Print | Product List | Glossary Off
Versions: 1 2 3 4 5 6 7 8 9 10 11 12 13 14 15 16 17 18 19 20 21 22 23 24 25 26 27 28 29 30 31 32 33 34 35 36 37 38 39 40 41 42 43 44 45 46 47 48 49 50

000
ASUS43 KJKL 070710
RWRJKL

EAST KENTUCKY HOURLY WEATHER ROUNDUP
NATIONAL WEATHER SERVICE JACKSON KY
200 AM EST SUN FEB 07 2016

NOTE: "FAIR" INDICATES FEW OR NO CLOUDS BELOW 12,000 FEET WITH
NO SIGNIFICANT WEATHER AND/OR OBSTRUCTIONS TO VISIBILITY.

* THESE REPORTS ARE NOT UNDER NWS QUALITY CONTROL AND MAY NOT
  REPORT WEATHER SUCH AS PRECIPITATION AND FOG.

KYZ079-080-083-085-087-088-110-112-115-119-120-070800
...EASTERN KENTUCKY...

CITY           SKY/WX    TMP DP  RH WIND       PRES   REMARKS
JACKSON        CLEAR     35  20  54 SW3       30.20F
LONDON         CLEAR     27  21  78 CALM      30.22F
SOMERSET*      CLEAR     27  23  86 CALM      30.25F
MONTICELLO*    CLEAR     21  18  88 W10       30.25F WCI  10
WILLIAMSBURG*  SUNNY     28  27  93 CALM      30.22F
MIDDLESBORO*   CLEAR     29  26  89 CALM      30.24F
HARLAN APT*      N/A     32  27  80 CALM      30.21F
HAZARD APT*    SUNNY    N/A N/A N/A CALM      30.21F
BLACK MTN*       N/A     28  19  69 N5          N/A  WCI  23
BIG SANDY*     SUNNY     36  22  58 CALM      30.20F
MOREHEAD APT*  SUNNY     28  23  80 S6        30.22F WCI  22
$$

KYZ035-036-041-042-044-050-067-078-099-070800
...CENTRAL KENTUCKY...

CITY           SKY/WX    TMP DP  RH WIND       PRES   REMARKS
MT STERLING*   CLEAR     28  27  93 SW6       30.22F WCI  22
DANVILLE*      CLEAR     30  23  74 SW3       30.23F
RICHMOND*      CLEAR     36  21  55 SW6       30.22S WCI  31
LEXINGTON      PTCLDY    34  22  61 SW6       30.21F WCI  29
FRANKFORT      PTCLDY    26  21  81 CALM      30.20F
$$

KYZ091>093-OHZ055-061-077-WVZ005-015-034-035-042-070800
...SOUTHERN OHIO/WEST VIRGINIA...

CITY           SKY/WX    TMP DP  RH WIND       PRES   REMARKS
COVINGTON      CLEAR     33  23  66 S8        30.18F WCI  26
COLUMBUS       PTCLDY    27  20  75 CALM      30.19F
DAYTON         CLEAR     35  24  64 S10       30.16F WCI  27
WILMINGTON     CLEAR     31  23  72 S5        30.17F WCI  26
HUNTINGTON       N/A     30  23  75 CALM      30.20F
CHARLESTON       N/A     30  22  72 CALM      30.21F
PINEVILLE*       N/A     28  23  80 MISG      30.23F
BECKLEY          N/A     30  17  58 CALM      30.16F
$$

VAZ002-007-008-TNZ017-027-036-066-071-070800
...SOUTHWEST VIRGINIA/EAST TENNESSEE...

CITY           SKY/WX    TMP DP  RH WIND       PRES   REMARKS
BRISTOL        CLEAR     25  22  88 CALM      30.21F
KNOXVILLE      PTCLDY    31  25  78 CALM      30.22F
OAK RIDGE      CLEAR     32  26  78 CALM      30.24F
CROSSVILLE     CLEAR     29  20  69 CALM      30.21F
NASHVILLE      CLEAR     31  24  75 S5        30.25F WCI  26
$$

...KEY TO REMARKS...
VSB - VISIBILITY IN MILES
WCI - WIND CHILL INDEX
HX  - HEAT INDEX

$$



USA.gov is the U.S. government's official web portal to all federal, state and local government web resources and services.